GW4240 Weather Reports


Display with metric or nautical units.
time (UTC)temp
F
wind
direction
speed
MPH
gust
MPH
rain 1hr
in
rain 24hr
in
rain mn
in
humidity
%
barometer
mb
20260902185025 67 136 5.0 15.0 0.00 0.00 0.00 69 1004.1
20260902184543 67 139 9.0 15.0 0.00 0.00 0.00 68 1004.1
20260902184024 67 143 9.0 20.0 0.00 0.00 0.00 67 1004.2
20260902183527 67 137 10.0 20.0 0.00 0.00 0.00 68 1004.2
20260902183051 67 127 13.0 19.0 0.00 0.00 0.00 68 1004.3
20260902182525 67 138 11.0 19.0 0.00 0.00 0.00 68 1004.2
20260902182028 67 146 10.0 19.0 0.00 0.00 0.00 69 1004.2
20260902181550 67 144 11.0 26.0 0.00 0.00 0.00 71 1004.2
20260902181029 67 156 12.0 26.0 0.00 0.00 0.00 70 1004.3
20260902180525 66 139 12.0 21.0 0.00 0.00 0.00 70 1004.2
20260902180050 66 117 13.0 22.0 0.00 0.00 0.00 70 1004.3
20260902175525 66 171 13.0 25.0 0.00 0.00 0.00 71 1004.4
20260902175027 66 127 15.0 25.0 0.00 0.00 0.00 70 1004.5
20260902174554 66 146 14.0 23.0 0.00 0.00 0.00 70 1004.5
20260902174028 66 150 12.0 20.0 0.00 0.00 0.00 71 1004.6
20260902173524 66 128 8.0 20.0 0.00 0.00 0.00 72 1004.7
20260902173054 66 131 11.0 20.0 0.00 0.00 0.00 73 1004.7
20260902172526 65 129 8.0 23.0 0.00 0.00 0.00 74 1004.7
20260902172023 65 114 14.0 23.0 0.00 0.00 0.00 73 1004.9
20260902171555 65 136 10.0 18.0 0.00 0.00 0.00 74 1004.9
20260902171026 65 159 11.0 17.0 0.00 0.00 0.00 74 1004.9
20260902170526 65 140 12.0 17.0 0.00 0.00 0.00 74 1004.9
20260902170047 64 137 11.0 21.0 0.00 0.00 0.00 75 1005.0
20260902165531 64 152 14.0 22.0 0.00 0.00 0.00 75 1004.9
20260902165028 64 115 14.0 22.0 0.00 0.00 0.00 76 1004.9
20260902164553 64 120 13.0 24.0 0.00 0.00 0.00 76 1004.8
20260902164026 64 115 13.0 24.0 0.00 0.00 0.00 77 1004.9
20260902163526 63 136 13.0 25.0 0.00 0.00 0.00 78 1004.9
20260902163050 63 143 16.0 25.0 0.00 0.00 0.00 77 1004.9
20260902162523 63 123 15.0 24.0 0.00 0.00 0.00 78 1004.9
20260902162025 63 144 14.0 24.0 0.00 0.00 0.00 79 1004.9
20260902161549 63 130 16.0 25.0 0.00 0.00 0.00 79 1005.0
20260902161026 63 115 18.0 25.0 0.00 0.00 0.00 78 1004.8
20260902160530 64 146 14.0 22.0 0.00 0.00 0.00 78 1005.0
20260902160051 64 124 15.0 22.0 0.00 0.00 0.00 77 1004.9
20260902155525 64 96 13.0 21.0 0.00 0.00 0.00 77 1005.0
20260902155025 64 80 12.0 21.0 0.00 0.00 0.00 76 1005.0
20260902154604 64 141 12.0 21.0 0.00 0.00 0.00 76 1005.0
20260902154025 64 135 14.0 22.0 0.00 0.00 0.00 75 1005.1
20260902153524 64 135 10.0 22.0 0.00 0.00 0.00 76 1005.1
20260902153049 64 144 11.0 20.0 0.00 0.00 0.00 76 1005.2
20260902152526 64 124 10.0 21.0 0.00 0.00 0.00 76 1005.2
20260902152024 64 135 14.0 25.0 0.00 0.00 0.00 76 1005.1
20260902151547 64 119 13.0 25.0 0.00 0.00 0.00 77 1005.1
20260902151027 64 126 16.0 25.0 0.00 0.00 0.00 76 1005.1
20260902150531 64 122 17.0 24.0 0.00 0.00 0.00 76 1005.1
20260902150047 64 103 16.0 24.0 0.00 0.00 0.00 77 1005.1
20260902145528 64 160 15.0 25.0 0.00 0.00 0.00 77 1005.0
20260902145029 64 148 15.0 25.0 0.00 0.00 0.00 77 1005.2
20260902144545 64 124 11.0 23.0 0.00 0.00 0.00 77 1005.3
20260902144026 64 150 16.0 23.0 0.00 0.00 0.00 76 1005.1
20260902143525 64 105 15.0 23.0 0.00 0.00 0.00 77 1005.1
20260902143052 64 162 16.0 23.0 0.00 0.00 0.00 77 1005.0
20260902142528 63 126 17.0 24.0 0.00 0.00 0.00 77 1004.9
20260902142027 63 102 13.0 24.0 0.00 0.00 0.00 77 1005.1
20260902141554 63 143 11.0 21.0 0.00 0.00 0.00 78 1005.1
20260902141027 63 166 10.0 19.0 0.00 0.00 0.00 78 1005.2
20260902140527 63 94 9.0 15.0 0.00 0.00 0.00 79 1005.3
20260902140050 62 148 9.0 21.0 0.00 0.00 0.00 80 1005.4
20260902135528 62 127 11.0 21.0 0.00 0.00 0.00 80 1005.4
20260902135026 62 141 10.0 17.0 0.00 0.00 0.00 81 1005.6
20260902134557 62 131 7.0 19.0 0.00 0.00 0.00 81 1005.7
20260902134023 62 128 9.0 20.0 0.00 0.00 0.00 82 1005.5
20260902133526 62 151 11.0 20.0 0.00 0.00 0.00 82 1005.4
20260902133050 62 123 14.0 20.0 0.00 0.00 0.00 82 1005.2
20260902132526 62 141 13.0 20.0 0.00 0.00 0.00 82 1005.4
20260902132024 62 121 8.0 19.0 0.00 0.00 0.00 82 1005.5
20260902131550 62 130 8.0 20.0 0.00 0.00 0.00 82 1005.6
20260902131028 62 150 12.0 20.0 0.00 0.00 0.00 82 1005.6
20260902130526 62 209 10.0 22.0 0.00 0.00 0.00 82 1005.6
20260902130048 62 183 8.0 22.0 0.00 0.00 0.00 81 1005.6
20260902125527 63 133 7.0 21.0 0.00 0.00 0.00 82 1005.7
20260902125030 63 120 8.0 21.0 0.00 0.00 0.00 82 1005.8
20260902124553 63 141 7.0 20.0 0.00 0.00 0.00 82 1005.6
20260902124028 63 131 10.0 20.0 0.00 0.00 0.00 81 1005.6
20260902123527 63 140 11.0 19.0 0.00 0.00 0.00 80 1005.6
20260902123048 63 171 10.0 19.0 0.00 0.00 0.00 80 1005.7
20260902122526 63 143 7.0 16.0 0.00 0.00 0.00 80 1005.7
20260902122025 63 145 9.0 16.0 0.00 0.00 0.00 81 1005.8
20260902121550 63 141 9.0 15.0 0.00 0.00 0.00 81 1005.8
20260902121025 63 124 9.0 16.0 0.00 0.00 0.00 80 1005.8
20260902120528 63 120 9.0 16.0 0.00 0.00 0.00 80 1005.9
20260902120044 63 168 8.0 19.0 0.00 0.00 0.00 80 1006.0
20260902115525 63 131 11.0 19.0 0.00 0.00 0.00 79 1006.0
20260902115027 63 130 10.0 17.0 0.00 0.00 0.00 80 1006.1
20260902114616 63 125 9.0 17.0 0.00 0.00 0.00 80 1006.2
20260902114025 63 140 7.0 18.0 0.00 0.00 0.00 80 1006.2
20260902113526 63 147 10.0 18.0 0.00 0.00 0.00 80 1006.5
20260902113050 63 141 8.0 17.0 0.00 0.00 0.00 79 1006.4
20260902112525 63 153 9.0 17.0 0.00 0.00 0.00 79 1006.6
20260902112029 63 122 7.0 17.0 0.00 0.00 0.00 80 1006.7
20260902111548 63 129 10.0 15.0 0.00 0.00 0.00 79 1006.7
20260902111025 63 129 8.0 14.0 0.00 0.00 0.00 79 1006.7
20260902110527 63 133 7.0 16.0 0.00 0.00 0.00 79 1006.8
20260902110050 63 146 7.0 21.0 0.00 0.00 0.00 78 1006.8
20260902105525 63 137 12.0 21.0 0.00 0.00 0.00 78 1006.8
20260902105026 63 139 8.0 18.0 0.00 0.00 0.00 78 1006.9
20260902104549 63 143 9.0 18.0 0.00 0.00 0.00 78 1006.8
20260902104024 63 321 7.0 18.0 0.00 0.00 0.00 79 1006.9
20260902103524 63 138 10.0 18.0 0.00 0.00 0.00 79 1006.8
20260902103101 63 150 8.0 17.0 0.00 0.00 0.00 79 1006.9
20260902102526 63 115 10.0 17.0 0.00 0.00 0.00 80 1006.9
20260902102027 63 163 7.0 14.0 0.00 0.00 0.00 80 1006.9
20260902101546 63 130 7.0 15.0 0.00 0.00 0.00 80 1007.0
20260902101025 63 132 6.0 15.0 0.00 0.00 0.00 80 1007.0
20260902100527 63 201 6.0 15.0 0.00 0.00 0.00 80 1007.0
20260902100105 62 96 7.0 15.0 0.00 0.00 0.00 80 1007.0
20260902095525 62 155 4.0 18.0 0.00 0.00 0.00 81 1007.1
20260902095026 62 118 6.0 18.0 0.00 0.00 0.00 81 1007.0
20260902094542 62 143 9.0 18.0 0.00 0.00 0.00 81 1007.0
20260902094026 62 136 9.0 17.0 0.00 0.00 0.00 82 1007.2
20260902093523 62 172 6.0 17.0 0.00 0.00 0.00 82 1007.2
20260902093107 62 151 6.0 16.0 0.00 0.00 0.00 83 1007.2
20260902092528 62 139 6.0 16.0 0.00 0.00 0.00 83 1007.3
20260902092029 62 136 8.0 16.0 0.00 0.00 0.00 83 1007.5
20260902091544 62 251 5.0 15.0 0.00 0.00 0.00 83 1007.6
20260902091025 62 139 5.0 15.0 0.00 0.00 0.00 83 1007.6
20260902090526 62 131 5.0 16.0 0.00 0.00 0.00 84 1007.7
20260902090048 62 167 7.0 16.0 0.00 0.00 0.00 84 1007.8
20260902085525 62 206 8.0 15.0 0.00 0.00 0.00 84 1007.8
20260902085024 62 127 4.0 11.0 0.00 0.00 0.00 84 1007.9
20260902084548 62 124 3.0 11.0 0.00 0.00 0.00 84 1007.9
20260902084028 62 240 5.0 11.0 0.00 0.00 0.00 84 1007.9
20260902083525 62 114 5.0 11.0 0.00 0.00 0.00 84 1007.9
20260902083045 62 148 5.0 11.0 0.00 0.00 0.00 84 1008.0
20260902082528 62 141 4.0 13.0 0.00 0.00 0.00 85 1007.9
20260902082032 62 244 6.0 13.0 0.00 0.00 0.00 85 1007.9
20260902081552 62 253 5.0 12.0 0.00 0.00 0.00 86 1007.9
20260902081027 62 153 4.0 9.0 0.00 0.00 0.00 86 1007.9
20260902080527 62 137 1.0 5.0 0.00 0.00 0.00 87 1008.1
20260902080049 62 185 2.0 5.0 0.00 0.00 0.00 86 1008.0
20260902075522 62 257 2.0 5.0 0.00 0.00 0.00 86 1007.8
20260902075028 62 167 2.0 5.0 0.00 0.00 0.00 86 1007.9
20260902074546 62 307 1.0 5.0 0.00 0.00 0.00 86 1007.7
20260902074025 62 179 2.0 5.0 0.00 0.00 0.00 86 1007.8
20260902073525 62 138 2.0 10.0 0.00 0.00 0.00 86 1007.7
20260902073048 62 219 2.0 10.0 0.00 0.00 0.00 86 1007.8
20260902072527 62 159 2.0 6.0 0.00 0.00 0.00 86 1007.9
20260902072025 62 216 2.0 5.0 0.00 0.00 0.00 86 1007.8
20260902071548 62 181 1.0 5.0 0.00 0.00 0.00 86 1007.9
20260902071028 62 158 3.0 5.0 0.00 0.00 0.00 86 1008.0
20260902070528 63 141 1.0 6.0 0.00 0.00 0.00 86 1008.0
20260902070050 63 148 2.0 7.0 0.00 0.00 0.00 86 1008.1
20260902065524 63 134 3.0 7.0 0.00 0.00 0.00 86 1008.0
20260902065027 63 143 5.0 8.0 0.00 0.00 0.00 86 1008.1
20260902064546 63 141 5.0 8.0 0.00 0.00 0.00 86 1008.2
20260902064025 63 151 3.0 6.0 0.00 0.00 0.00 86 1008.1
20260902063530 63 150 1.0 6.0 0.00 0.00 0.00 86 1008.1
20260902063043 63 154 2.0 8.0 0.00 0.00 0.00 86 1008.1
20260902062527 63 109 3.0 8.0 0.00 0.00 0.00 86 1008.2
20260902062029 63 206 4.0 10.0 0.00 0.00 0.00 86 1008.2
20260902061558 63 161 3.0 10.0 0.00 0.00 0.00 86 1008.2
20260902061025 63 132 3.0 6.0 0.00 0.00 0.00 85 1008.3
20260902060524 63 139 2.0 5.0 0.00 0.00 0.00 85 1008.3
20260902060056 63 162 2.0 7.0 0.00 0.00 0.00 85 1008.4
20260902055527 63 160 2.0 7.0 0.00 0.00 0.00 85 1008.4
20260902055026 63 136 3.0 11.0 0.00 0.00 0.00 84 1008.4
20260902054549 63 173 4.0 13.0 0.00 0.00 0.00 84 1008.3
20260902054026 63 145 7.0 13.0 0.00 0.00 0.00 84 1008.2
20260902053527 63 148 7.0 13.0 0.00 0.00 0.00 84 1008.2
20260902053043 63 151 7.0 13.0 0.00 0.00 0.00 83 1008.3
20260902052527 64 219 6.0 12.0 0.00 0.00 0.00 83 1008.3
20260902052026 64 211 6.0 13.0 0.00 0.00 0.00 83 1008.5
20260902051548 64 148 6.0 13.0 0.00 0.00 0.00 82 1008.4
20260902051024 64 152 5.0 11.0 0.00 0.00 0.00 82 1008.4
20260902050527 63 140 7.0 11.0 0.00 0.00 0.00 82 1008.4
20260902050047 63 134 5.0 12.0 0.00 0.00 0.00 82 1008.4
20260902045524 64 141 6.0 12.0 0.00 0.00 0.00 81 1008.4
20260902045025 64 138 7.0 12.0 0.00 0.00 0.00 81 1008.4
20260902044547 63 135 9.0 11.0 0.00 0.00 0.00 80 1008.3
20260902044026 63 127 7.0 9.0 0.00 0.00 0.00 81 1008.3
20260902043526 63 139 7.0 11.0 0.00 0.00 0.00 82 1008.3
20260902043049 63 125 7.0 11.0 0.00 0.00 0.00 82 1008.4
20260902042526 63 116 8.0 11.0 0.00 0.00 0.00 82 1008.4
20260902042023 63 132 6.0 9.0 0.00 0.00 0.00 82 1008.4
20260902041604 63 117 5.0 7.0 0.00 0.00 0.00 82 1008.5
20260902041024 63 101 3.0 4.0 0.00 0.00 0.00 81 1008.4
20260902040524 63 124 2.0 7.0 0.00 0.00 0.00 80 1008.6
20260902040049 63 170 3.0 7.0 0.00 0.00 0.00 81 1008.5
20260902035528 63 122 3.0 7.0 0.00 0.00 0.00 81 1008.5
20260902035029 62 150 2.0 5.0 0.00 0.00 0.00 82 1008.4
20260902034544 62 161 2.0 4.0 0.00 0.00 0.00 82 1008.3
20260902034025 62 150 2.0 4.0 0.00 0.00 0.00 82 1008.3
20260902033527 62 160 2.0 5.0 0.00 0.00 0.00 82 1008.3
20260902033043 63 129 1.0 5.0 0.00 0.00 0.00 81 1008.2
20260902032527 63 180 1.0 5.0 0.00 0.00 0.00 80 1008.2
20260902032029 63 127 2.0 5.0 0.00 0.00 0.00 80 1008.2
20260902031559 63 131 2.0 5.0 0.00 0.00 0.00 80 1008.3
20260902031026 64 108 2.0 4.0 0.00 0.00 0.00 80 1008.2
20260902030530 64 189 1.0 4.0 0.00 0.00 0.00 79 1008.2
20260902030045 64 210 2.0 6.0 0.00 0.00 0.00 80 1008.2
20260902025525 64 176 2.0 6.0 0.00 0.00 0.00 80 1008.1
20260902025032 64 150 3.0 6.0 0.00 0.00 0.00 80 1008.0
20260902024553 64 157 2.0 5.0 0.00 0.00 0.00 80 1008.0
20260902024024 64 160 2.0 5.0 0.00 0.00 0.00 79 1008.0
20260902023525 65 220 2.0 8.0 0.00 0.00 0.00 79 1008.1
20260902023054 65 141 3.0 8.0 0.00 0.00 0.00 79 1008.0
20260902022527 65 153 4.0 8.0 0.00 0.00 0.00 79 1008.0
20260902022026 65 138 4.0 8.0 0.00 0.00 0.00 78 1008.0
20260902021555 64 169 3.0 8.0 0.00 0.00 0.00 78 1007.9
20260902021026 65 134 3.0 8.0 0.00 0.00 0.00 78 1008.1
20260902020525 65 131 4.0 8.0 0.00 0.00 0.00 78 1008.0
20260902020047 65 218 4.0 9.0 0.00 0.00 0.00 77 1008.1
20260902015527 65 170 3.0 9.0 0.00 0.00 0.00 75 1008.1
20260902015028 65 125 4.0 9.0 0.00 0.00 0.00 75 1008.1
20260902014547 65 154 4.0 10.0 0.00 0.00 0.00 76 1008.1
20260902014027 65 232 4.0 10.0 0.00 0.00 0.00 75 1008.0
20260902013529 64 122 4.0 10.0 0.00 0.00 0.00 75 1008.2
20260902013051 65 157 4.0 10.0 0.00 0.00 0.00 75 1008.0
20260902012526 65 131 5.0 12.0 0.00 0.00 0.00 76 1008.0
20260902012024 65 165 5.0 12.0 0.00 0.00 0.00 75 1008.0
20260902011549 65 147 4.0 12.0 0.00 0.00 0.00 75 1008.0
20260902011025 65 176 3.0 10.0 0.00 0.00 0.00 75 1008.0
20260902010523 65 183 4.0 12.0 0.00 0.00 0.00 76 1007.9
20260902010047 65 113 6.0 12.0 0.00 0.00 0.00 75 1007.9
20260902005524 65 136 6.0 12.0 0.00 0.00 0.00 75 1007.9
20260902005024 65 170 6.0 12.0 0.00 0.00 0.00 75 1007.9
20260902004549 65 144 6.0 14.0 0.00 0.00 0.00 76 1007.9
20260902004027 65 158 7.0 14.0 0.00 0.00 0.00 76 1007.9
20260902003526 65 191 7.0 14.0 0.00 0.00 0.00 76 1007.9
20260902003051 65 141 8.0 13.0 0.00 0.00 0.00 76 1007.9
20260902002526 65 186 6.0 13.0 0.00 0.00 0.00 77 1007.9
20260902002025 65 149 6.0 13.0 0.00 0.00 0.00 77 1007.9
20260902001556 65 131 6.0 13.0 0.00 0.00 0.00 77 1007.8
20260902001024 65 155 6.0 12.0 0.00 0.00 0.00 76 1007.8
20260902000527 65 122 7.0 12.0 0.00 0.00 0.00 76 1007.9
20260902000055 65 148 6.0 14.0 0.00 0.00 0.00 76 1007.9
20260901235526 65 178 6.0 14.0 0.00 0.00 0.00 76 1007.9
20260901235024 65 127 7.0 12.0 0.00 0.00 0.00 76 1007.9
20260901234554 65 131 5.0 12.0 0.00 0.00 0.00 76 1007.9
20260901234024 66 123 4.0 12.0 0.00 0.00 0.00 75 1007.9
20260901233529 66 154 6.0 12.0 0.00 0.00 0.00 76 1008.0
20260901233105 66 146 6.0 12.0 0.00 0.00 0.00 76 1008.1
20260901232526 66 167 5.0 12.0 0.00 0.00 0.00 75 1008.1
20260901232026 66 148 6.0 11.0 0.00 0.00 0.00 75 1008.0
20260901231547 66 65 5.0 15.0 0.00 0.00 0.00 76 1008.0
20260901231024 66 207 4.0 15.0 0.00 0.00 0.00 76 1008.0
20260901230527 66 139 9.0 15.0 0.00 0.00 0.00 74 1008.0
20260901230047 66 141 6.0 13.0 0.00 0.00 0.00 75 1008.1
20260901225525 66 145 6.0 12.0 0.00 0.00 0.00 76 1008.0
20260901225028 66 156 5.0 11.0 0.00 0.00 0.00 77 1008.0
20260901224553 66 220 5.0 11.0 0.00 0.00 0.00 76 1008.0
20260901224025 66 168 5.0 13.0 0.00 0.00 0.00 76 1008.0
20260901223526 66 274 5.0 13.0 0.00 0.00 0.00 78 1007.9
20260901223048 66 177 5.0 12.0 0.00 0.00 0.00 77 1008.0
20260901222530 66 276 5.0 11.0 0.00 0.00 0.00 78 1008.1
20260901222025 66 139 5.0 9.0 0.00 0.00 0.00 78 1008.0
20260901221548 66 157 4.0 9.0 0.00 0.00 0.00 79 1008.0
20260901221026 65 124 5.0 15.0 0.00 0.00 0.00 80 1008.0
20260901220525 65 153 6.0 15.0 0.00 0.00 0.00 79 1008.1
20260901220046 65 127 6.0 12.0 0.00 0.00 0.00 78 1008.1
20260901215524 65 160 5.0 11.0 0.00 0.00 0.00 78 1008.1
20260901215027 66 167 4.0 8.0 0.00 0.00 0.00 79 1008.2
20260901214602 65 135 4.0 9.0 0.00 0.00 0.00 79 1008.2
20260901214025 65 146 4.0 11.0 0.00 0.00 0.00 79 1008.3
20260901213526 65 217 5.0 11.0 0.00 0.00 0.00 80 1008.3
20260901213115 65 212 6.0 11.0 0.00 0.00 0.00 80 1008.5
20260901212528 65 120 5.0 12.0 0.00 0.00 0.00 80 1008.4
20260901212028 65 169 5.0 12.0 0.00 0.00 0.00 81 1008.3
20260901211547 65 180 4.0 15.0 0.00 0.00 0.00 81 1008.4
20260901211025 65 106 6.0 15.0 0.00 0.00 0.00 80 1008.4
20260901210526 65 207 7.0 13.0 0.00 0.00 0.00 79 1008.3
20260901210047 66 255 8.0 12.0 0.00 0.00 0.00 78 1008.3
20260901205525 67 127 5.0 11.0 0.00 0.00 0.00 76 1008.4
20260901205025 68 88 4.0 8.0 0.00 0.00 0.00 77 1008.3
20260901204546 67 73 3.0 10.0 0.00 0.00 0.00 77 1008.4
20260901204025 67 183 3.0 10.0 0.00 0.00 0.00 77 1008.5
20260901203528 67 166 4.0 10.0 0.00 0.00 0.00 78 1008.6
20260901203114 67 103 5.0 10.0 0.00 0.00 0.00 77 1008.6
20260901202525 67 103 4.0 9.0 0.00 0.00 0.00 78 1008.5
20260901202026 67 158 4.0 8.0 0.00 0.00 0.00 78 1008.6
20260901201555 67 137 4.0 9.0 0.00 0.00 0.00 77 1008.6
20260901201026 67 107 4.0 9.0 0.00 0.00 0.00 76 1008.8
20260901200526 67 188 4.0 8.0 0.00 0.00 0.00 76 1008.8
20260901200047 68 176 4.0 8.0 0.00 0.00 0.00 75 1008.8
20260901195525 67 167 5.0 8.0 0.00 0.00 0.00 75 1008.8
20260901195024 68 113 4.0 8.0 0.00 0.00 0.00 75 1008.8
20260901194543 68 201 3.0 9.0 0.00 0.00 0.00 75 1008.9
20260901194025 68 101 3.0 9.0 0.00 0.00 0.00 76 1008.9
20260901193524 67 127 5.0 9.0 0.00 0.00 0.00 75 1008.9
20260901193051 68 88 4.0 9.0 0.00 0.00 0.00 75 1009.0
20260901192525 68 134 5.0 8.0 0.00 0.00 0.00 75 1009.1
20260901192025 68 190 4.0 10.0 0.00 0.00 0.00 75 1009.0
20260901191603 67 153 3.0 10.0 0.00 0.00 0.00 76 1009.0
20260901191025 68 175 4.0 10.0 0.00 0.00 0.00 74 1009.0
20260901190528 68 233 2.0 6.0 0.00 0.00 0.00 74 1009.1
20260901190046 68 12 2.0 7.0 0.00 0.00 0.00 75 1009.1
20260901185524 68 271 3.0 7.0 0.00 0.00 0.00 73 1009.0